GW2126 Weather Reports


time (UTC)temp
C
wind
direction
speed
KPH
gust
KPH
rain 1hr
cm
rain 24hr
cm
rain mn
cm
humidity
%
barometer
mb
20260509064531 7 215 1.6 3.2 0.00 0.00 0.00 57 1004.9
20260509063029 7 212 0.0 3.2 0.00 0.00 0.00 61 1004.9
20260509061528 6 0 0.0 1.6 0.00 0.00 0.00 61 1005.2
20260509060028 7 0 0.0 1.6 0.00 0.00 0.00 64 1005.3
20260509054531 7 212 0.0 1.6 0.00 0.00 0.00 60 1005.7
20260509053041 7 0 0.0 1.6 0.00 0.00 0.00 58 1005.7
20260509051535 7 212 0.0 1.6 0.00 0.00 0.00 60 1005.8
20260509050028 7 212 0.0 1.6 0.00 0.00 0.00 60 1005.8
20260509044526 8 0 0.0 1.6 0.00 0.00 0.00 58 1005.9
20260509043033 8 0 0.0 3.2 0.00 0.00 0.00 54 1005.9
20260509041526 8 212 0.0 1.6 0.00 0.00 0.00 54 1006.1
20260509040032 8 0 0.0 1.6 0.00 0.00 0.00 53 1006.2
20260509034535 9 0 0.0 1.6 0.00 0.00 0.00 55 1006.5
20260509033028 10 0 0.0 1.6 0.00 0.00 0.00 50 1006.6
20260509031547 10 0 0.0 3.2 0.00 0.00 0.00 47 1006.8
20260509030047 10 0 0.0 3.2 0.00 0.00 0.00 51 1006.9
20260509024534 10 0 0.0 1.6 0.00 0.00 0.00 48 1007.0
20260509023034 10 0 0.0 1.6 0.00 0.00 0.00 47 1007.1
20260509021535 11 0 0.0 1.6 0.00 0.00 0.00 46 1007.1
20260509020031 11 0 0.0 0.0 0.00 0.00 0.00 44 1007.0
20260509014530 12 0 0.0 0.0 0.00 0.00 0.00 41 1006.9
20260509013028 13 0 0.0 0.0 0.00 0.00 0.00 39 1006.7
20260509011530 13 217 0.0 1.6 0.00 0.00 0.00 33 1006.8
20260509010029 15 0 0.0 1.6 0.00 0.00 0.00 32 1006.7
20260509004541 15 0 0.0 4.8 0.00 0.00 0.00 31 1006.7
20260509003035 16 216 3.2 6.4 0.00 0.00 0.00 29 1006.6
20260509001532 16 232 3.2 12.9 0.00 0.00 0.00 28 1006.5
20260509000027 16 240 3.2 12.9 0.00 0.00 0.00 28 1006.4
20260508234527 16 208 3.2 14.5 0.00 0.00 0.00 27 1006.5
20260508233030 16 241 4.8 11.3 0.00 0.00 0.00 26 1006.6
20260508231529 16 205 4.8 11.3 0.00 0.00 0.00 27 1006.6
20260508230025 16 217 3.2 14.5 0.00 0.00 0.00 26 1006.6
20260508224528 16 247 4.8 12.9 0.00 0.00 0.00 26 1006.7
20260508223041 16 223 4.8 14.5 0.00 0.00 0.00 26 1006.8
20260508221528 16 308 6.4 14.5 0.00 0.00 0.00 25 1006.9
20260508220028 16 223 8.0 17.7 0.00 0.00 0.00 25 1006.9
20260508214527 17 190 9.7 17.7 0.00 0.00 0.00 26 1007.0
20260508213030 17 205 6.4 16.1 0.00 0.00 0.00 25 1007.0
20260508211529 16 252 4.8 19.3 0.00 0.00 0.00 26 1007.2
20260508210031 16 217 8.0 17.7 0.00 0.00 0.00 25 1007.3
20260508204529 17 190 8.0 19.3 0.00 0.00 0.00 25 1007.5
20260508203028 17 220 3.2 11.3 0.00 0.00 0.00 26 1007.6
20260508201527 16 221 3.2 11.3 0.00 0.00 0.00 28 1007.8
20260508200032 16 253 4.8 11.3 0.00 0.00 0.00 28 1008.1
20260508194536 16 246 6.4 16.1 0.00 0.00 0.00 26 1008.2
20260508193028 16 186 4.8 12.9 0.00 0.00 0.00 28 1008.3
20260508191535 16 213 6.4 19.3 0.00 0.00 0.00 27 1008.6
20260508190028 15 226 12.9 22.5 0.00 0.00 0.00 27 1008.9
20260508184528 15 229 6.4 12.9 0.00 0.00 0.00 29 1009.0
20260508183033 16 180 6.4 16.1 0.00 0.00 0.00 28 1009.2
20260508181531 15 259 3.2 19.3 0.00 0.00 0.00 29 1009.4
20260508180028 15 220 8.0 17.7 0.00 0.00 0.00 26 1009.6
20260508174528 15 198 4.8 17.7 0.00 0.00 0.00 28 1009.7
20260508173028 15 315 0.0 8.0 0.00 0.00 0.00 32 1009.9
20260508171529 14 242 4.8 16.1 0.00 0.00 0.00 29 1010.2
20260508170028 14 161 1.6 11.3 0.00 0.00 0.00 31 1010.2
20260508164528 13 246 4.8 14.5 0.00 0.00 0.00 35 1010.6
20260508163032 13 232 9.7 19.3 0.00 0.00 0.00 32 1010.9
20260508161526 13 159 6.4 12.9 0.00 0.00 0.00 32 1011.0
20260508160027 12 273 4.8 17.7 0.00 0.00 0.00 36 1010.9
20260508154530 12 225 4.8 12.9 0.00 0.00 0.00 36 1011.1
20260508153037 12 222 6.4 16.1 0.00 0.00 0.00 35 1011.2
20260508151528 12 219 4.8 11.3 0.00 0.00 0.00 42 1011.3
20260508150049 11 259 3.2 11.3 0.00 0.00 0.00 45 1011.3
20260508144527 11 227 6.4 17.7 0.00 0.00 0.00 48 1011.4
20260508143027 11 159 4.8 12.9 0.00 0.00 0.00 49 1011.6
20260508141530 11 188 3.2 11.3 0.00 0.00 0.00 50 1011.8
20260508140030 10 211 4.8 12.9 0.00 0.00 0.00 54 1011.8
20260508134529 9 229 4.8 11.3 0.00 0.00 0.00 55 1011.9
20260508133028 9 232 4.8 11.3 0.00 0.00 0.00 57 1011.9
20260508131529 8 205 3.2 9.7 0.00 0.00 0.00 62 1011.9
20260508130026 8 199 3.2 8.0 0.00 0.00 0.00 64 1011.9
20260508124528 7 219 3.2 12.9 0.00 0.00 0.00 68 1011.8
20260508123028 7 202 3.2 8.0 0.00 0.00 0.00 70 1011.8
20260508121527 6 237 3.2 6.4 0.00 0.00 0.00 72 1011.7
20260508120028 5 223 1.6 6.4 0.00 0.00 0.00 77 1011.6
20260508114526 3 240 0.0 3.2 0.00 0.00 0.00 87 1011.6
20260508113030 2 0 0.0 1.6 0.00 0.00 0.00 90 1011.3
20260508111529 1 0 0.0 0.0 0.00 0.00 0.00 90 1011.3
20260508110028 1 240 1.6 3.2 0.00 0.00 0.00 90 1011.3
20260508104528 0 0 0.0 1.6 0.00 0.00 0.00 90 1011.4
20260508103028 0 0 0.0 0.0 0.00 0.00 0.00 90 1011.4
20260508101529 0 0 0.0 1.6 0.00 0.00 0.00 90 1011.4
20260508100033 1 0 0.0 0.0 0.00 0.00 0.00 90 1011.4
20260508094528 1 0 0.0 1.6 0.00 0.00 0.00 90 1011.6
20260508093035 1 0 0.0 0.0 0.00 0.00 0.00 89 1011.5
20260508091528 1 0 0.0 1.6 0.00 0.00 0.00 89 1011.7
20260508090034 1 0 0.0 1.6 0.00 0.00 0.00 89 1011.6
20260508084528 1 0 0.0 1.6 0.00 0.00 0.00 89 1011.5
20260508083027 2 0 0.0 1.6 0.00 0.00 0.00 89 1011.6
20260508081530 2 0 0.0 0.0 0.00 0.00 0.00 89 1011.5
20260508080050 2 0 0.0 0.0 0.00 0.00 0.00 88 1011.7
20260508074528 3 240 0.0 1.6 0.00 0.00 0.00 87 1011.7
20260508073027 3 0 0.0 1.6 0.00 0.00 0.00 85 1011.7
20260508071526 3 0 0.0 0.0 0.00 0.00 0.00 85 1011.8
20260508070028 4 0 0.0 0.0 0.00 0.00 0.00 83 1011.9